Miscellaneous Local Product
Issued by NWS Hastings, NE

Home | Current Version | Previous Version | Text Only | Print | Product List | Glossary Off
Versions: 1 2 3 4 5 6 7 8 9 10 11 12 13 14 15 16 17 18 19 20 21 22 23 24 25 26 27 28 29 30 31 32 33 34 35 36 37 38 39 40 41 42 43 44 45 46 47 48 49 50

000
AXUS43 KGID 281802
MISGRI

GID CWA HOURLY WEATHER ROUNDUP
NATIONAL WEATHER SERVICE HASTINGS NE
100 PM CDT SAT MAR 28 2015

NOTE: "FAIR" INDICATES FEW OR NO CLOUDS BELOW 12,000 FEET WITH NO
SIGNIFICANT WEATHER AND/OR OBSTRUCTIONS TO VISIBILITY.

...SOUTH CENTRAL NEBRASKA...

CITY           SKY/WX    TMP DP  RH WIND       PRES   REMARKS
GRAND ISLAND   SUNNY     52  31  44 SE13      30.06F
HASTINGS       SUNNY     54  31  41 SE12      30.04F
KEARNEY        SUNNY     55  30  38 SE10      30.04F
ORD            SUNNY     53  29  39 SE10      30.02F
YORK           SUNNY     46  32  57 SE8G17    30.09F
AURORA         SUNNY     50  31  49 SE14      30.07F
LEXINGTON      SUNNY     58  33  39 SE9       30.01F
HOLDREGE       SUNNY     56  31  38 SE8       30.02F
HEBRON         SUNNY     52  30  41 E10G17    30.07F

...NEBRASKA PANHANDLE...

CITY           SKY/WX    TMP DP  RH WIND       PRES   REMARKS
CHADRON        SUNNY     73  34  23 VRB3      29.86F
ALLIANCE       SUNNY     73  30  20 W12G20    29.91F
SCOTTSBLUFF    SUNNY     73  33  23 W12G23    29.92F
SIDNEY         SUNNY     74  31  20 VRB5      29.96F

...WESTERN AND NORTH CENTRAL NEBRASKA...

CITY           SKY/WX    TMP DP  RH WIND       PRES   REMARKS
VALENTINE      SUNNY     66  35  31 S15       29.92F
AINSWORTH      SUNNY     62  34  34 S13G20    29.95F
ONEILL         SUNNY     49  32  51 SE15      30.02F
BROKEN BOW     SUNNY     59  34  39 SE12G23   29.99F
IMPERIAL         N/A     70  35  27 S8        29.98F
NORTH PLATTE   SUNNY     69  37  30 S12       29.97F
MCCOOK         SUNNY     68  36  30 S12       29.99F

...EASTERN NEBRASKA...

CITY           SKY/WX    TMP DP  RH WIND       PRES   REMARKS
NORFOLK        SUNNY     46  31  55 SE15      30.08F
SO SIOUX CITY  SUNNY     49  25  39 S15G26    30.13F
TEKAMAH        SUNNY     50  26  39 SE21G36   30.14F
COLUMBUS       SUNNY     48  28  46 SE14      30.11F
ALBION         SUNNY     48  29  48 SE9G17    30.06F
OMAHA EPPLEY   MOSUNNY   48  27  44 S15G23    30.15F
OFFUTT AFB     SUNNY     49  28  45 SE15G22   30.15F
MILLARD        SUNNY     48  28  46 SE13G21   30.15S
LINCOLN        SUNNY     50  30  46 S16       30.13F
NEBRASKA CITY  SUNNY     46  27  46 SE16      30.15F
BEATRICE       SUNNY     49  31  50 E10G16    30.11F
FALLS CITY     SUNNY     49  30  48 SE14G23   30.15F

...NORTHERN KANSAS...

CITY           SKY/WX    TMP DP  RH WIND       PRES   REMARKS
GOODLAND       SUNNY     73  29  19 MISG      30.01F
HILL CITY      SUNNY     63  36  36 E10       30.03F
NORTON         CLEAR     63  30  29 E8        30.01F
PHILLIPSBURG   SUNNY     61  36  39 E8        30.04F
SMITH CENTER   SUNNY     55  34  44 E8        30.05F
BELOIT         SUNNY     59  32  36 E8        30.04F
HAYS           SUNNY     63  37  39 E8        30.03F
RUSSELL        SUNNY     63  37  38 E12       30.01F
CONCORDIA      SUNNY     56  33  42 E12       30.06F
SALINA         SUNNY     59  36  42 E9G18     30.06S
TOPEKA         SUNNY     52  30  43 SE14G21   30.13F



USA.gov is the U.S. government's official web portal to all federal, state and local government web resources and services.